Погода в Новосергеевке

Россия / Амурская область     50°54′49″N   128°47′38″E
темп.,
°C
ветер,
м/с
пор.,
м/с
влажн.,
%
обл.,
%
осадки,
мм/ч
давл.,
гПа
погр.,
м
17 января, пн
пн1700:00−19сз3797100 0.1 1025203
03:00−20сз4798100 0.1 1025216
06:00−20сз4797100 0.1 1025227
09:00−20сз4898100 0.1 1026253
12:00−18ссз5692100 0.1 1026379
15:00−17ссз4693100 0.2 1026502
18:00−20сз389998 0.1 1028148
21:00−23сз389975 0.1 1029123
18 января, вт
вт1800:00−25сз3710070 0.0 103089
03:00−27ссз369932 0.0 103169
06:00−28сз36975 0.0 103263
09:00−29ссз35965 0.0 103362
12:00−22ссз35895 0.0 1033193
15:00−20ссз36915 0.0 1033284
18:00−26ссз22995 0.0 103411
21:00−27ссз34995 0.0 103542
19 января, ср
ср1900:00−28ссз36965 0.0 103557
03:00−28сз36955 0.0 103570
06:00−30сз34955 0.0 103447
09:00−30сз35955 0.0 103452
12:00−22сз35855 0.0 1033192
15:00−19сз25885 0.0 1031300
18:00−27ссв11985 0.0 10329
21:00−30ссз001008 0.0 10329
20 января, чт
чт2000:00−31сз1110014 0.0 10329
03:00−32ссз1110022 0.0 10339
06:00−33ссз1110017 0.0 10339
09:00−34ссв1110014 0.0 10359
12:00−24сз12935 0.0 1034142
15:00−22сз12905 0.0 1034168
18:00−29с11995 0.0 10369
21:00−31зюз001005 0.0 10379
21 января, пт
пт2100:00−32ююз111008 0.0 10379
03:00−33ю1110047 0.0 10389
06:00−34ююв1110053 0.0 10389
09:00−33ююз1110013 0.0 10379
12:00−21зсз228619 0.0 1035135
15:00−19з118699 0.0 1034133
18:00−24ю1197100 0.0 10349
21:00−28ююв111005 0.0 10339